Hagerstown, MD

8:07 PM EST on November 13, 2019 (GMT -0500)
Hagerstown Regional-Henson

Weather History for KHGR - September, 2019

Change the Weather History Date:

Friday, September 13, 2019

  Actual Average Record
Temperature  
Mean Temperature 69 °F 67 °F  
Max Temperature 72 °F 76 °F 89 °F (2005)
Min Temperature 65 °F 58 °F 50 °F (2002)
Degree Days  
Heating Degree Days 0 1  
Month to date heating degree days 0 8  
Since 1 July heating degree days 0 13  
Cooling Degree Days 4 3  
Month to date cooling degree days 120 60  
Year to date cooling degree days 1329 928  
Growing Degree Days 18 (Base 50)    
Moisture  
Dew Point 60 °F    
Average Humidity 81    
Maximum Humidity 93    
Minimum Humidity 68    
Precipitation  
Precipitation 0.20 in 0.12 in 0.82 in (2003)
Month to date precipitation 0.25 1.32  
Year to date precipitation 28.62 27.95  
Sea Level Pressure  
Sea Level Pressure 30.33 in    
Wind  
Wind Speed 9 mph (East)    
Max Wind Speed 15 mph    
Max Gust Speed 18 mph    
Visibility 9 miles    
Events Rain    
T = Trace of Precipitation, MM = Missing Value Source: NWS Daily Summary

Daily Weather History Graph

Daily Weather History Graph

Search for Another Location

Airport or City:

Astronomy

Sep. 13, 2019 Rise Set
Actual Time 6:49 AM EDT 7:23 PM EDT
Civil Twilight 6:22 AM EDT 7:50 PM EDT
Nautical Twilight 5:50 AM EDT 8:22 PM EDT
Astronomical Twilight 5:17 AM EDT 8:54 PM EDT
Moon 7:35 PM EDT (9/13) 6:05 AM EDT (9/13)
Length of Visible Light 13h 27m
Length of Day
12h 33m
Full, 100% of the Moon is Illuminated
Sep 13
Full
Sep 14
Full
Sep 21
Last Quarter
Sep 28
New
Oct 5
First Quarter

Hourly Weather History & Observations

Time (EDT) Temp. Dew Point Humidity Pressure Visibility Wind Dir Wind Speed Gust Speed Precip Events Conditions
12:53 AM 72.0 °F 66.0 °F 81% 30.22 in 10.0 mi NNE 5.8 mph - N/A   Overcast
1:05 AM 72.0 °F 66.0 °F 81% 30.22 in 10.0 mi North 6.9 mph - N/A   Overcast
1:53 AM 71.1 °F 64.9 °F 81% 30.24 in 10.0 mi North 8.1 mph - N/A   Overcast
2:53 AM 69.1 °F 64.9 °F 87% 30.25 in 10.0 mi East 12.7 mph - 0.00 in   Overcast
3:04 AM 69.1 °F 64.9 °F 87% 30.24 in 9.0 mi East 11.5 mph - 0.00 in Rain Light Rain
3:23 AM 68.0 °F 64.9 °F 90% 30.25 in 6.0 mi ENE 8.1 mph - 0.01 in Rain Rain
3:35 AM 68.0 °F 64.9 °F 90% 30.25 in 2.0 mi NE 6.9 mph - 0.11 in Rain Rain
3:50 AM 68.0 °F 64.4 °F 88% 30.25 in 3.0 mi NE 9.2 mph - 0.18 in Rain Rain
3:53 AM 68.0 °F 64.0 °F 87% 30.26 in 3.0 mi NE 10.4 mph - 0.19 in Rain Rain
4:53 AM 66.9 °F 64.0 °F 90% 30.27 in 10.0 mi NE 8.1 mph - 0.01 in   Overcast
5:08 AM 66.9 °F 64.0 °F 90% 30.26 in 10.0 mi NE 6.9 mph - N/A   Overcast
5:31 AM 66.9 °F 64.0 °F 90% 30.27 in 10.0 mi NE 5.8 mph - 0.00 in   Overcast
5:53 AM 66.9 °F 64.0 °F 90% 30.29 in 10.0 mi ENE 6.9 mph - 0.00 in   Overcast
6:53 AM 66.9 °F 64.0 °F 90% 30.32 in 10.0 mi ENE 8.1 mph - N/A   Overcast
7:17 AM 66.0 °F 62.1 °F 87% 30.31 in 7.0 mi East 9.2 mph - N/A   Overcast
7:53 AM 64.9 °F 60.1 °F 84% 30.35 in 10.0 mi East 9.2 mph - 0.00 in   Overcast
8:53 AM 64.9 °F 59.0 °F 81% 30.37 in 10.0 mi East 8.1 mph - N/A   Overcast
9:53 AM 64.9 °F 57.9 °F 78% 30.39 in 10.0 mi ESE 8.1 mph - N/A   Overcast
10:53 AM 64.9 °F 57.0 °F 75% 30.39 in 10.0 mi East 8.1 mph - N/A   Overcast
11:53 AM 64.9 °F 57.0 °F 75% 30.41 in 10.0 mi ESE 10.4 mph - N/A   Overcast
12:53 PM 64.9 °F 57.0 °F 75% 30.41 in 10.0 mi ESE 9.2 mph - N/A   Overcast
1:53 PM 66.0 °F 57.0 °F 73% 30.40 in 10.0 mi ESE 9.2 mph - N/A   Overcast
2:53 PM 66.0 °F 57.0 °F 73% 30.40 in 10.0 mi ESE 6.9 mph - N/A   Overcast
3:53 PM 64.9 °F 57.9 °F 78% 30.40 in 10.0 mi East 5.8 mph - N/A   Overcast
5:53 PM 66.0 °F 57.9 °F 75% 30.39 in 10.0 mi ESE 5.8 mph - N/A   Overcast
6:53 PM 66.0 °F 57.0 °F 73% 30.38 in 10.0 mi ESE 6.9 mph - N/A   Overcast
7:31 PM 66.0 °F 57.0 °F 73% 30.36 in 10.0 mi SE 5.8 mph - N/A   Overcast
7:53 PM 66.0 °F 55.9 °F 70% 30.38 in 10.0 mi ESE 5.8 mph - N/A   Overcast
8:08 PM 66.0 °F 55.9 °F 70% 30.35 in 10.0 mi SE 6.9 mph - N/A   Overcast
8:53 PM 66.9 °F 55.9 °F 68% 30.39 in 10.0 mi SE 10.4 mph - N/A   Overcast
9:53 PM 66.9 °F 55.9 °F 68% 30.38 in 10.0 mi SSE 8.1 mph - N/A   Overcast
10:53 PM 66.9 °F 57.0 °F 70% 30.38 in 10.0 mi SSE 9.2 mph - N/A   Overcast
11:53 PM 66.9 °F 57.0 °F 70% 30.36 in 10.0 mi SSE 11.5 mph - N/A   Overcast